231  
ASUS41 KLWX 281013  
RWRLWX  
 
REGIONAL WEATHER ROUNDUP  
NATIONAL WEATHER SERVICE BALTIMORE MD/WASHINGTON DC  
500 AM EST MON NOV 28 2022  
 
NOTE: "FAIR" INDICATES FEW OR NO CLOUDS BELOW 12,000 FEET  
WITH NO SIGNIFICANT WEATHER AND/OR S TO VISIBILITY
.  
TC=TEMPERATURE CELSIUS  
 
* =NON NWS SITE. STATION DOES NOT REPORT PRECIPITATION (E.G. RAIN,  
SNOW, ETC.), THUNDER, OR FOG.
 
 
DCZ001-MDZ009-015-VAZ040>042-051-053>054-281100-  
WASHINGTON METRO  
 
CITY SKY/WX TMP DP RH WIND PRES REMARKS
 
WASHINGTON NAT CLOUDY 51 50 96 S6 29.62R  
DULLES CLOUDY 50 49 96 W6 29.62R  
ANDREWS AFB CLOUDY 51 51 99 SW3 29.59R  
FT BELVOIR CLOUDY 46 46 100 CALM 29.60R  
QUANTICO CLOUDY 51 32 48 W5 29.64R  
COLLEGE PARK* CLOUDY 48 48 98 CALM 29.62R  
LEESBURG* CLOUDY 55 45 67 W7 29.64R  
MANASSAS* MOCLDY 46 46 100 SE3 29.63R  
GAITHERSBURG* CLOUDY 48 48 100 W3 29.63R  
 

 
 
MDZ006>007-011-014-281100-  
BALTIMORE METRO  
 
CITY SKY/WX TMP DP RH WIND PRES REMARKS
 
BWI AIRPORT MOCLDY 51 49 92 W9 29.60R  
MARTIN STATE CLOUDY 52 50 93 W8 29.61S  
ANNAPOLIS CLOUDY 54 49 83 NW5 29.60R  
FORT MEADE* CLOUDY 46 45 93 CALM 29.63R  
 

 
 
MDZ012-015-019>023-281100-  
MARYLAND EASTERN SHORE  
 
CITY SKY/WX TMP DP RH WIND PRES REMARKS
 
OCEAN CITY CLEAR 46 46 100 CALM 29.62R FOG  
SALISBURY FOG 49 49 100 CALM 29.61R VSB 1/2  
BAY BRIDGE AP* CLOUDY 52 N/A N/A W5 29.61R  
CAMBRIDGE* CLOUDY 46 46 100 SW3 29.62R FOG  
EASTON* FOG N/A N/A N/A SW5 29.64R VSB 1  
 

 
 
MDZ017>025-281100-  
SOUTHERN MARYLAND  
 
CITY SKY/WX TMP DP RH WIND PRES REMARKS
 
PATUXENT RIVER CLEAR 52 46 80 W6 29.62R  
ST INIGOES CLEAR 48 44 86 CALM 29.62R  
LEONARDTOWN* CLEAR 48 46 93 SW3 29.64R  
 

 
 
MDZ003>005-281100-  
NORTH CENTRAL MARYLAND  
 
CITY SKY/WX TMP DP RH WIND PRES REMARKS
 
FREDERICK* RAIN 55 43 62 W12 29.62R  
HAGERSTOWN APT MOCLDY 51 44 77 W16 29.61R  
WESTMINSTER* PTCLDY 55 45 67 W13G18 29.59R  
 

 
 
MDZ501>502-281100-  
WESTERN MARYLAND  
 
CITY SKY/WX TMP DP RH WIND PRES REMARKS
 
OAKLAND* CLOUDY 34 34 100 NW9G22 29.67R VSB 3/4 WCI 26  
CUMBERLAND* CLOUDY 48 40 74 N15G25 29.73R  
 

 
 
VAZ025>031-281100-  
SHENANDOAH VALLEY  
 
CITY SKY/WX TMP DP RH WIND PRES REMARKS
 
WINCHESTER* CLOUDY 54 41 62 W7 29.62R  
FRONT ROYAL* CLOUDY 55 39 54 SW3 29.63R  
LURAY* CLOUDY 55 37 50 SW9 29.64R  
NEW MARKET* CLOUDY 56 38 50 W9 29.66R  
STAUNTON* CLOUDY 52 39 61 SW10 29.69R  
WAYNESBORO* CLOUDY 51 38 61 SW5 29.67S  
 

 
 
WVZ021-048>050-054>055-281100-  
EASTERN WEST VIRGINIA PANHANDLE  
 
CITY SKY/WX TMP DP RH WIND PRES REMARKS
 
MARTINSBURG LGT RAIN 53 43 68 W15G33 29.62R  
PETERSBURG* NOT AVBL  
 

 
 
VAZ036>039-050-281100-  
CENTRAL FOOTHILLS  
 
CITY SKY/WX TMP DP RH WIND PRES REMARKS
 
CHARLOTTESVILL MOCLDY 56 40 55 S3 29.66R  
CULPEPER* CLOUDY 52 45 79 S6 29.65R  
ORANGE* PTCLDY 45 45 100 W6 29.66R FOG  
GORDONSVILLE* NOT AVBL  
WARRENTON* MOCLDY 47 44 90 SW3 29.63R  
 

 
 
VAZ055>057-281100-  
NORTH AND CENTRAL PIEDMONT  
 
CITY SKY/WX TMP DP RH WIND PRES REMARKS
 
FREDERICKSBRG* CLOUDY 54 46 74 SW7 29.62R  
STAFFORD* PTCLDY 58 49 71 W3 29.63R  
 

 
 
NCZ024-NYZ072-PAZ021-071-VAZ022-071-281100-  
OTHER REGIONAL OBSERVATIONS  
 
CITY SKY/WX TMP DP RH WIND PRES REMARKS
 
NEW YORK CITY CLEAR 54 45 71 SW8G20 29.51S  
PHILADELPHIA PTCLDY 50 45 83 SW9 29.56R  
PITTSBURGH DRIZZLE 41 38 89 W10 29.75R WCI 35  
ROANOKE MOCLDY 54 39 57 W8 29.74R  
RICHMOND CLEAR 54 43 66 W8 29.66R  
RALEIGH CLEAR 52 44 74 SW5 29.76R  
 

 
 
ANZ530>537-281100-  
MARINE OBSERVATIONS  
 
STATION/POSITION TIME TEMP WIND PRES
 
AIR SEA DIR/SP/G  
(UTC) (F) (DEG/KT/KT) (MB)  
THOMAS PT LIGHT 1000 53 260/ 7/ 8 1003.4R  
TOLCHESTER 0924 50 49 280/ 5/ 8 1002.1  
GOOSES REEF 0948 49 240/ 6 1003.7R  
COVE POINT 0924 55 190/ 12/ 14 1003.0  
BALT HARBOR 0924 53 49 320/ 3/ 6 1001.6  
BALT KEY BRIDGE 0924 290/ 2/ 2 1002.1  
ANNAPOLIS USNA 0924 51 53 310/ 4/ 5 1001.7  
ANNAPOLIS CBIBS 0948 51 50 300/ 8/ 10 1002.2R  
WASH DC CHANNEL 0924 50 45 150/ 5/ 5 1002.3  
DAHLGREN 0924 52 52 320/ 2/ 3 1002.2  
LEWISETTA 0924 54 50 260/ 7/ 8 1003.0  
SOLOMONS ISLAND 0924 51 52 330/ 2/ 3 1001.5  
PINEY POINT 0924 330/ 6/ 7 N/A  
POTOMAC BUOY 0948 51 52 300/ 4/ 4 N/A  
CAMBRIDGE PIER 0924 51 48 CALM / 5 1002.5  
BISHOPS HEAD 0924 52 49 240/ 5/ 5 1002.8  
CHESAPEAKE CITY 0924 55 45 290/ 5/ 6 1001.3  
 

 
 
 
 
CLICK HERE TO GO TO PREVIOUS BULLETINS.

The Nexlab VA Page
The Nexlab MD Page
The Nexlab WV Page Main Text Page